User: anonymous   Login
Location: Unspecified
(0.0000°N, 0.0000°E)
Time: 23:14:53
(UTC+01:00)
Language:

Meteor 1-10 Rocket - Orbit

View from above orbital plane
View from above orbital plane
View from above satellite
View from above satellite

Ground track
Ground track

The orbit data is extracted from the following two-line orbital elements,

1 05732U 71120B   14354.92843999  .00000206  00000-0  11688-3 0  4460
2 05732 081.2534 281.4090 0052447 079.9965 347.8908 14.05854983211171
Epoch (UTC): 20 December 2014 22:16:57
Eccentricity: 0.0052447
inclination: 81.2534°
perigee height: 835 km
apogee height: 911 km
right ascension of ascending node: 281.4090°
argument of perigee: 79.9965°
revolutions per day: 14.05854983
mean anomaly at epoch: 347.8908°
orbit number at epoch: 21117

The dashed part of the orbit path shows where the satellite is in the earth's shadow,  

DLR